Simultaneous Nadir Overpasses (SNOs) Predictions

Prediction of SNOs between AQUA and METOP-A Satellite Orbit:

Table of predicted SNOs for the next 14.0 days since TLE Epoch: 8/23/2014
Index Date (AQUA) Time (AQUA) Lat,Lon (AQUA) SZA (AQUA ) Date (METOP-A) Time (METOP-A) Lat,Lon (METOP-A) SZA (METOP-A ) Distance(km) Time Diff (sec)
1 08/23/2014 05:25:11 73.08, 94.49 61.59 08/23/2014 05:24:06 73.03, 91.50 61.66 96.90 65
2 08/23/2014 06:14:50 -73.80, -99.37 117.64 08/23/2014 06:14:32 -73.83, -99.36 117.61 3.33 18
3 08/23/2014 07:04:19 73.86, 68.11 62.45 08/23/2014 07:05:11 73.86, 68.06 62.44 1.84 52
4 08/26/2014 00:59:32 73.50, 160.06 63.00 08/26/2014 00:58:22 73.42, 158.78 62.98 41.48 70
5 08/26/2014 01:49:03 -73.80, -32.93 116.68 08/26/2014 01:48:56 -73.82, -32.97 116.66 2.76 7
6 08/26/2014 02:38:32 73.87, 134.55 63.41 08/26/2014 02:39:35 73.85, 134.44 63.39 3.72 63
7 08/28/2014 20:33:48 73.74,-134.00 64.23 08/28/2014 20:32:38 73.76,-134.03 64.26 2.65 70
8 08/28/2014 21:23:15 -73.82, 33.47 115.68 08/28/2014 21:23:19 -73.81, 33.40 115.69 2.57 4
9 08/28/2014 22:12:44 73.89,-159.06 64.42 08/28/2014 22:13:57 73.89,-159.06 64.41 0.51 73
10 08/31/2014 16:08:01 73.78, -67.65 65.28 08/31/2014 16:07:01 73.79, -67.55 65.29 3.11 60
11 08/31/2014 16:57:28 -73.86, 99.83 114.63 08/31/2014 16:57:42 -73.84, 99.89 114.66 3.11 14
12 08/31/2014 17:47:04 74.30, -93.55 65.86 08/31/2014 17:48:12 74.31, -91.59 65.81 58.74 68
13 09/03/2014 11:42:12 73.75, -1.11 66.26 09/03/2014 11:41:25 73.77, -1.20 66.29 3.49 47
14 09/03/2014 12:31:40 -73.87, 166.26 113.60 09/03/2014 12:32:05 -73.86, 166.36 113.62 3.24 25




NCC Satellite Simultaneous Nadir Overpasses (SNOs) Prediction Service
